GW1800 Weather Reports


Display with metric or nautical units.
time (UTC)temp
F
wind
direction
speed
MPH
gust
MPH
rain 1hr
in
rain 24hr
in
rain mn
in
humidity
%
barometer
mb
20260507150109 53 56 7.0 8.0 0.00 0.00 0.00 48 998.6
20260507145604 54 35 5.0 7.0 0.00 0.00 0.00 49 998.8
20260507145102 55 78 3.0 3.0 0.00 0.00 0.00 49 999.0
20260507144558 54 61 4.0 6.0 0.00 0.00 0.00 49 998.9
20260507144056 53 30 4.0 6.0 0.00 0.00 0.00 49 998.9
20260507143552 52 344 4.0 5.0 0.00 0.00 0.00 48 999.1
20260507143050 53 85 2.0 2.0 0.00 0.00 0.00 52 998.9
20260507142550 53 199 1.0 1.0 0.00 0.00 0.00 49 999.0
20260507142047 54 38 3.0 7.0 0.00 0.00 0.00 47 998.9
20260507141543 53 99 1.0 2.0 0.00 0.00 0.00 49 998.9
20260507141040 53 153 3.0 5.0 0.00 0.00 0.00 48 998.9
20260507140537 52 171 2.0 3.0 0.00 0.00 0.00 50 998.9
20260507140035 53 311 6.0 7.0 0.00 0.00 0.00 48 998.9
20260507135531 53 72 2.0 2.0 0.00 0.00 0.00 52 999.0
20260507135029 52 132 2.0 2.0 0.00 0.00 0.00 50 998.9
20260507134525 52 127 2.0 3.0 0.00 0.00 0.00 50 998.7
20260507134021 53 325 4.0 5.0 0.00 0.00 0.00 53 998.8
20260507133517 52 71 3.0 3.0 0.00 0.00 0.00 52 998.8
20260507133016 51 73 3.0 3.0 0.00 0.00 0.00 53 998.9
20260507132512 52 62 5.0 7.0 0.00 0.00 0.00 55 998.8
20260507132008 51 78 2.0 2.0 0.00 0.00 0.00 55 999.1
20260507131505 51 8 3.0 3.0 0.00 0.00 0.00 56 999.0
20260507131002 51 99 3.0 3.0 0.00 0.00 0.00 57 998.9
20260507130459 51 314 4.0 6.0 0.00 0.00 0.00 59 998.9
20260507125957 51 37 4.0 5.0 0.00 0.00 0.00 61 998.8
20260507125455 50 95 2.0 2.0 0.00 0.00 0.00 62 998.9
20260507124952 49 102 2.0 2.0 0.00 0.00 0.00 63 998.9
20260507124449 49 53 4.0 6.0 0.00 0.00 0.00 62 998.8
20260507123947 48 50 1.0 2.0 0.00 0.00 0.00 65 998.8
20260507123444 48 55 3.0 3.0 0.00 0.00 0.00 66 998.9
20260507122940 48 165 1.0 1.0 0.00 0.00 0.00 68 998.9
20260507122436 47 97 2.0 3.0 0.00 0.00 0.00 69 999.1
20260507121932 47 81 2.0 3.0 0.00 0.00 0.00 70 999.1
20260507121427 47 131 1.0 2.0 0.00 0.00 0.00 72 999.1
20260507120924 46 46 5.0 6.0 0.00 0.00 0.00 72 999.0
20260507120421 46 128 2.0 2.0 0.00 0.00 0.00 75 999.1
20260507115917 45 148 0.0 0.0 0.00 0.00 0.00 80 999.1
20260507115413 43 99 1.0 1.0 0.00 0.00 0.00 89 999.0
20260507114909 42 180 0.0 0.0 0.00 0.00 0.00 95 998.8
20260507114406 41 177 0.0 0.0 0.00 0.00 0.00 98 998.8
20260507113903 40 185 0.0 0.0 0.00 0.00 0.00 99 999.1
20260507113400 39 184 0.0 0.0 0.00 0.00 0.00 99 999.1
20260507112857 39 205 0.0 0.0 0.00 0.00 0.00 99 999.1
20260507112355 39 187 0.0 0.0 0.00 0.00 0.00 99 998.9
20260507111852 39 182 0.0 0.0 0.00 0.00 0.00 99 999.0
20260507111349 38 188 0.0 0.0 0.00 0.00 0.00 99 998.7
20260507110845 38 188 0.0 0.0 0.00 0.00 0.00 99 998.8
20260507110341 38 185 0.0 0.0 0.00 0.00 0.00 99 998.6
20260507105839 38 191 0.0 0.0 0.00 0.00 0.00 99 998.4
20260507105335 38 182 0.0 0.0 0.00 0.00 0.00 99 998.6
20260507104832 38 185 0.0 0.0 0.00 0.00 0.00 99 998.4
20260507104328 38 182 0.0 0.0 0.00 0.00 0.00 99 998.2
20260507103824 38 185 0.0 0.0 0.00 0.00 0.00 99 998.2
20260507103321 39 176 0.0 0.0 0.00 0.00 0.00 99 998.3
20260507102817 39 180 0.0 0.0 0.00 0.00 0.00 99 998.4
20260507102314 39 178 0.0 0.0 0.00 0.00 0.00 99 998.3
20260507101810 39 185 0.0 0.0 0.00 0.00 0.00 99 998.6
20260507101305 39 175 0.0 0.0 0.00 0.00 0.00 99 998.4
20260507100803 39 184 0.0 0.0 0.00 0.00 0.00 99 998.4
20260507100301 39 175 1.0 1.0 0.00 0.00 0.00 99 998.2
20260507095758 39 184 0.0 0.0 0.00 0.00 0.00 99 998.1
20260507095254 38 122 1.0 1.0 0.00 0.00 0.00 99 998.2
20260507094751 38 190 0.0 0.0 0.00 0.00 0.00 99 998.3
20260507094248 37 184 0.0 0.0 0.00 0.00 0.00 99 998.3
20260507093745 38 184 0.0 0.0 0.00 0.00 0.00 99 998.2
20260507093244 38 187 0.0 0.0 0.00 0.00 0.00 99 998.3
20260507092741 38 184 0.0 0.0 0.00 0.00 0.00 99 998.2
20260507092237 38 177 0.0 0.0 0.00 0.00 0.00 99 998.1
20260507091734 38 177 0.0 0.0 0.00 0.00 0.00 99 998.0
20260507091230 38 177 0.0 0.0 0.00 0.00 0.00 99 998.2
20260507090726 38 177 0.0 0.0 0.00 0.00 0.00 99 998.0
20260507090222 38 177 0.0 0.0 0.00 0.00 0.00 99 998.0
20260507085720 38 177 0.0 0.0 0.00 0.00 0.00 99 998.0
20260507085217 39 177 0.0 0.0 0.00 0.00 0.00 99 998.2
20260507084713 39 177 0.0 0.0 0.00 0.00 0.00 99 997.9
20260507084210 39 177 0.0 0.0 0.00 0.00 0.00 99 998.0
20260507083708 39 177 0.0 0.0 0.00 0.00 0.00 99 998.0
20260507083204 39 176 0.0 0.0 0.00 0.00 0.00 99 997.8
20260507082700 39 176 0.0 0.0 0.00 0.00 0.00 99 997.7
20260507082156 38 176 0.0 0.0 0.00 0.00 0.00 99 997.8
20260507081653 39 176 0.0 0.0 0.00 0.00 0.00 99 997.9
20260507081149 39 176 0.0 0.0 0.00 0.00 0.00 99 997.9
20260507080646 39 176 0.0 0.0 0.00 0.00 0.00 99 997.7
20260507080142 39 176 0.0 0.0 0.00 0.00 0.00 99 997.8
20260507075637 39 176 0.0 0.0 0.00 0.00 0.00 99 997.8
20260507075133 39 176 0.0 0.0 0.00 0.00 0.00 99 997.8
20260507074630 38 176 0.0 0.0 0.00 0.00 0.00 99 997.8
20260507074129 39 176 0.0 0.0 0.00 0.00 0.00 99 997.8
20260507073625 39 176 0.0 0.0 0.00 0.00 0.00 99 997.8
20260507073121 39 176 0.0 0.0 0.00 0.00 0.00 99 997.8
20260507072619 40 176 0.0 0.0 0.00 0.00 0.00 99 997.7
20260507072116 40 177 0.0 0.0 0.00 0.00 0.00 99 997.7
20260507071613 39 176 0.0 0.0 0.00 0.00 0.00 99 997.7
20260507071110 39 176 0.0 0.0 0.00 0.00 0.00 99 997.7
20260507070607 40 176 0.0 0.0 0.00 0.00 0.00 99 997.8
20260507070104 41 176 0.0 0.0 0.00 0.00 0.00 99 997.9
20260507065600 40 176 0.0 0.0 0.00 0.00 0.00 99 997.9
20260507065057 40 176 0.0 0.0 0.00 0.00 0.00 99 997.6
20260507064555 40 176 0.0 0.0 0.00 0.00 0.00 99 997.7
20260507064054 41 176 0.0 0.0 0.00 0.00 0.00 99 997.8
20260507063550 40 176 0.0 0.0 0.00 0.00 0.00 99 998.0
20260507063048 40 176 0.0 0.0 0.00 0.00 0.00 99 998.0
20260507062544 41 176 0.0 0.0 0.00 0.00 0.00 99 998.1
20260507062041 41 176 0.0 0.0 0.00 0.00 0.00 99 998.0
20260507061539 41 176 0.0 0.0 0.00 0.00 0.00 99 997.9
20260507061037 41 176 0.0 0.0 0.00 0.00 0.00 99 998.0
20260507060535 41 176 0.0 0.0 0.00 0.00 0.00 99 997.8
20260507060031 42 176 0.0 0.0 0.00 0.00 0.00 99 997.8
20260507055531 41 176 0.0 0.0 0.00 0.00 0.00 99 997.9
20260507055028 42 176 0.0 0.0 0.00 0.00 0.00 99 998.0
20260507054524 41 176 0.0 0.0 0.00 0.00 0.00 99 997.9
20260507054021 42 176 0.0 0.0 0.00 0.00 0.00 99 998.0
20260507053519 42 176 0.0 0.0 0.00 0.00 0.00 99 998.0
20260507053018 42 176 0.0 0.0 0.00 0.00 0.00 99 998.1
20260507052515 42 176 0.0 0.0 0.00 0.00 0.00 99 998.1
20260507052011 43 176 0.0 0.0 0.00 0.00 0.00 99 998.0
20260507051509 42 176 0.0 0.0 0.00 0.00 0.00 99 998.1
20260507051006 42 176 0.0 0.0 0.00 0.00 0.00 99 998.1
20260507050502 42 176 0.0 0.0 0.00 0.00 0.00 98 997.8
20260507045959 42 176 0.0 0.0 0.00 0.00 0.00 98 997.9
20260507045455 43 176 0.0 0.0 0.00 0.00 0.00 98 997.9
20260507044953 42 176 0.0 0.0 0.00 0.00 0.00 98 998.0
20260507044450 43 176 0.0 0.0 0.00 0.00 0.00 97 998.0
20260507043946 44 176 0.0 0.0 0.00 0.00 0.00 97 998.2
20260507043442 43 176 0.0 0.0 0.00 0.00 0.00 97 998.4
20260507042938 43 176 0.0 0.0 0.00 0.00 0.00 97 998.0
20260507042436 43 176 0.0 0.0 0.00 0.00 0.00 97 998.3
20260507041931 44 173 0.0 0.0 0.00 0.00 0.00 96 998.2
20260507041428 44 173 0.0 0.0 0.00 0.00 0.00 96 998.2
20260507040926 44 182 0.0 0.0 0.00 0.00 0.00 95 998.2
20260507040421 44 184 0.0 0.0 0.00 0.00 0.00 95 998.2
20260507035917 44 176 0.0 0.0 0.00 0.68 0.68 95 998.2
20260507035414 44 176 0.0 0.0 0.00 0.68 0.68 94 998.1
20260507034911 44 176 0.0 0.0 0.00 0.68 0.68 94 998.0
20260507034407 45 176 0.0 0.0 0.00 0.68 0.68 93 998.1
20260507033905 45 176 0.0 0.0 0.00 0.68 0.68 93 997.8
20260507033403 45 176 0.0 0.0 0.00 0.68 0.68 92 997.9
20260507032900 45 176 0.0 0.0 0.00 0.68 0.68 92 998.1
20260507032356 45 176 0.0 0.0 0.00 0.68 0.68 91 998.2
20260507031853 45 176 0.0 0.0 0.00 0.68 0.68 91 998.0
20260507031350 46 176 0.0 0.0 0.00 0.68 0.68 91 998.2
20260507030846 46 176 0.0 0.0 0.00 0.68 0.68 90 998.1
20260507030344 46 177 0.0 0.0 0.00 0.68 0.68 90 998.2
20260507025840 46 176 0.0 0.0 0.00 0.68 0.68 89 998.0
20260507025338 47 176 0.0 0.0 0.00 0.68 0.68 88 998.2
20260507024835 47 176 0.0 0.0 0.00 0.68 0.68 87 998.0
20260507024333 47 176 0.0 0.0 0.00 0.68 0.68 87 998.0
20260507023828 47 176 0.0 0.0 0.00 0.68 0.68 85 998.1
20260507023325 48 176 0.0 0.0 0.00 0.68 0.68 85 997.9
20260507022822 48 176 0.0 0.0 0.00 0.68 0.68 84 998.0
20260507022318 48 176 0.0 0.0 0.00 0.68 0.68 83 997.9
20260507021809 48 176 0.0 0.0 0.00 0.68 0.68 82 998.0
20260507021305 49 176 0.0 0.0 0.00 0.68 0.68 81 997.7
20260507020803 49 176 0.0 0.0 0.00 0.68 0.68 80 997.8
20260507020259 50 176 0.0 0.0 0.00 0.68 0.68 77 997.7
20260507015757 50 176 0.0 0.0 0.00 0.68 0.68 77 997.8
20260507015254 51 176 0.0 0.0 0.00 0.68 0.68 77 997.6
20260507014751 51 176 0.0 0.0 0.00 0.68 0.68 74 997.7
20260507014247 51 176 0.0 0.0 0.00 0.68 0.68 74 997.6
20260507013744 51 176 0.0 0.0 0.00 0.68 0.68 73 997.7
20260507013241 52 176 0.0 0.0 0.00 0.68 0.68 72 997.5
20260507012738 52 176 0.0 0.0 0.00 0.68 0.68 72 997.6
20260507012234 53 176 0.0 0.0 0.00 0.68 0.68 67 997.6
20260507011732 53 177 0.0 0.0 0.00 0.68 0.68 65 997.2
20260507011228 53 240 0.0 0.0 0.00 0.68 0.68 65 997.3
20260507010727 54 179 0.0 0.0 0.00 0.68 0.68 64 997.3
20260507010224 54 168 0.0 0.0 0.00 0.68 0.68 64 997.1
20260507005722 54 164 1.0 1.0 0.00 0.68 0.68 63 997.2
20260507005218 54 177 0.0 0.0 0.00 0.68 0.68 63 997.3
20260507004714 55 173 0.0 0.0 0.00 0.68 0.68 63 997.3
20260507004212 55 136 2.0 3.0 0.00 0.68 0.68 62 997.2
20260507003708 55 168 0.0 1.0 0.00 0.68 0.68 64 997.1
20260507003203 56 140 1.0 1.0 0.00 0.68 0.68 62 997.1
20260507002700 56 81 3.0 5.0 0.00 0.68 0.68 62 997.1
20260507002156 56 156 1.0 1.0 0.00 0.68 0.68 62 996.9
20260507001652 57 98 3.0 3.0 0.00 0.68 0.68 62 997.1
20260507001150 57 70 1.0 2.0 0.00 0.68 0.68 62 996.9
20260507000646 57 72 2.0 3.0 0.00 0.68 0.68 61 997.0
20260507000142 57 157 0.0 1.0 0.00 0.68 0.68 61 996.9
20260506235639 58 159 2.0 2.0 0.00 0.68 0.68 60 996.6
20260506235139 58 168 1.0 1.0 0.00 0.68 0.68 60 996.9
20260506234637 57 158 0.0 1.0 0.00 0.68 0.68 59 996.7
20260506234134 57 81 1.0 2.0 0.00 0.68 0.68 59 996.7
20260506233631 57 178 0.0 1.0 0.00 0.68 0.68 61 996.6
20260506233128 57 48 4.0 7.0 0.00 0.68 0.68 58 996.5
20260506232624 58 124 3.0 3.0 0.00 0.68 0.68 58 996.5
20260506232119 58 176 0.0 0.0 0.00 0.68 0.68 59 996.5
20260506231617 59 158 1.0 1.0 0.00 0.68 0.68 58 996.4
20260506231115 58 36 2.0 3.0 0.00 0.68 0.68 57 996.3
20260506230612 58 155 2.0 2.0 0.00 0.68 0.68 57 996.2
20260506230109 58 31 4.0 5.0 0.00 0.68 0.68 55 996.1
20260506225605 58 78 3.0 3.0 0.00 0.68 0.68 56 996.0
20260506225101 58 88 3.0 3.0 0.00 0.68 0.68 57 996.0
20260506224558 58 39 2.0 2.0 0.00 0.68 0.68 57 996.2
20260506224055 58 134 1.0 2.0 0.00 0.68 0.68 57 996.2
20260506223551 58 153 1.0 2.0 0.00 0.68 0.68 56 996.1
20260506223047 58 48 4.0 5.0 0.00 0.68 0.68 55 996.2
20260506222544 58 38 3.0 3.0 0.00 0.68 0.68 55 996.3
20260506222041 58 4 5.0 6.0 0.00 0.68 0.68 56 996.4
20260506221538 59 90 3.0 5.0 0.00 0.68 0.68 56 996.6
20260506221036 59 46 1.0 2.0 0.00 0.68 0.68 56 996.3
20260506220532 59 42 4.0 5.0 0.00 0.68 0.68 56 996.5
20260506220028 59 56 3.0 5.0 0.00 0.68 0.68 55 996.4
20260506215525 58 48 2.0 3.0 0.00 0.68 0.68 55 996.5
20260506215020 59 76 3.0 5.0 0.00 0.68 0.68 54 996.8
20260506214518 59 163 1.0 1.0 0.00 0.68 0.68 53 996.8
20260506214015 59 346 4.0 5.0 0.00 0.68 0.68 54 996.6
20260506213513 59 126 4.0 5.0 0.00 0.68 0.68 51 996.5
20260506213010 60 86 4.0 5.0 0.00 0.68 0.68 52 996.4
20260506212506 59 184 1.0 2.0 0.00 0.68 0.68 53 996.6
20260506212001 59 76 4.0 6.0 0.00 0.68 0.68 52 996.6
20260506211457 60 47 3.0 3.0 0.00 0.68 0.68 56 996.2
20260506210954 60 170 3.0 3.0 0.00 0.68 0.68 53 996.5
20260506210450 60 77 2.0 3.0 0.00 0.68 0.68 57 996.3
20260506205948 60 62 2.0 2.0 0.00 0.68 0.68 55 996.2
20260506205443 59 65 4.0 6.0 0.00 0.68 0.68 57 996.3
20260506204940 60 31 7.0 10.0 0.00 0.68 0.68 54 996.2
20260506204438 60 175 1.0 1.0 0.00 0.68 0.68 56 996.1
20260506203935 60 59 2.0 2.0 0.00 0.68 0.68 56 996.0
20260506203432 59 50 2.0 3.0 0.00 0.68 0.68 56 996.1
20260506202929 60 33 5.0 6.0 0.00 0.68 0.68 56 996.2
20260506202427 60 158 3.0 5.0 0.00 0.68 0.68 56 996.0
20260506201922 61 171 1.0 1.0 0.00 0.68 0.68 57 996.2
20260506201420 61 32 2.0 3.0 0.00 0.68 0.68 55 996.1
20260506200917 61 192 2.0 2.0 0.00 0.68 0.68 55 996.1
20260506200413 60 66 3.0 5.0 0.00 0.68 0.68 54 996.2
20260506195910 61 73 2.0 2.0 0.00 0.68 0.68 55 996.1
20260506195407 61 205 1.0 2.0 0.00 0.68 0.68 56 996.1
20260506194903 60 63 3.0 3.0 0.00 0.68 0.68 54 996.4
20260506194400 60 73 2.0 3.0 0.00 0.68 0.68 53 996.4
20260506193857 61 308 4.0 5.0 0.00 0.68 0.68 52 996.2
20260506193354 61 136 1.0 1.0 0.00 0.68 0.68 55 996.1
20260506192851 61 201 1.0 2.0 0.00 0.68 0.68 54 996.4
20260506192348 61 165 0.0 1.0 0.00 0.68 0.68 53 996.3
20260506191845 62 224 2.0 2.0 0.00 0.68 0.68 55 996.0
20260506191341 62 139 1.0 2.0 0.00 0.68 0.68 57 996.0
20260506190838 61 202 1.0 2.0 0.00 0.68 0.68 54 995.7
20260506190334 60 229 3.0 3.0 0.00 0.68 0.68 53 996.1
20260506185831 60 43 2.0 2.0 0.00 0.68 0.68 57 996.0
20260506185328 60 74 3.0 6.0 0.00 0.68 0.68 54 995.9
20260506184825 60 62 5.0 7.0 0.00 0.68 0.68 55 996.0
20260506184322 60 87 4.0 5.0 0.00 0.68 0.68 54 996.0
20260506183820 60 254 1.0 2.0 0.00 0.68 0.68 60 996.0
20260506183315 60 157 1.0 2.0 0.00 0.68 0.68 57 995.8
20260506182812 59 90 3.0 3.0 0.00 0.68 0.68 57 995.9
20260506182309 60 109 2.0 3.0 0.00 0.68 0.68 56 996.0
20260506181807 60 71 5.0 8.0 0.00 0.68 0.68 58 995.9
20260506181305 59 32 3.0 3.0 0.00 0.68 0.68 58 995.9
20260506180802 60 77 3.0 3.0 0.00 0.68 0.68 58 995.9
20260506180257 59 267 3.0 6.0 0.00 0.68 0.68 62 995.7
20260506175754 60 177 3.0 5.0 0.00 0.68 0.68 57 996.1
20260506175251 58 56 3.0 3.0 0.00 0.68 0.68 60 996.1
20260506174748 59 58 4.0 5.0 0.00 0.68 0.68 58 996.1
20260506174245 58 66 3.0 3.0 0.00 0.68 0.68 60 996.4
20260506173743 58 153 1.0 2.0 0.00 0.68 0.68 62 996.2
20260506173240 58 202 1.0 1.0 0.00 0.68 0.68 60 996.3
20260506172736 57 67 4.0 6.0 0.00 0.68 0.68 59 996.3
20260506172233 58 49 5.0 7.0 0.00 0.68 0.68 59 996.6
20260506171731 56 180 3.0 3.0 0.00 0.68 0.68 64 996.6
20260506171228 57 38 7.0 10.0 0.00 0.68 0.68 64 996.7
20260506170725 57 44 2.0 5.0 0.00 0.68 0.68 63 996.6
20260506170222 57 337 3.0 3.0 0.00 0.68 0.68 63 996.6
20260506165720 56 59 9.0 10.0 0.00 0.68 0.68 62 996.5
20260506165217 56 95 1.0 1.0 0.00 0.68 0.68 65 996.7
20260506164714 56 92 3.0 3.0 0.00 0.68 0.68 65 996.8
20260506164211 56 46 1.0 2.0 0.00 0.68 0.68 64 996.5
20260506163707 56 41 5.0 8.0 0.00 0.68 0.68 63 996.5
20260506163202 56 100 6.0 8.0 0.00 0.68 0.68 62 996.7
20260506162659 56 47 7.0 8.0 0.00 0.68 0.68 63 996.7
20260506162157 55 64 7.0 8.0 0.00 0.68 0.68 66 996.7
20260506161654 56 74 6.0 7.0 0.00 0.68 0.68 64 996.7
20260506161150 55 44 3.0 6.0 0.00 0.68 0.68 67 996.6
20260506160648 55 82 3.0 5.0 0.00 0.68 0.68 63 996.5
20260506160145 55 37 5.0 8.0 0.00 0.68 0.68 65 996.4
20260506155644 55 44 6.0 8.0 0.00 0.68 0.68 67 996.4
20260506155140 54 85 4.0 6.0 0.00 0.68 0.68 69 996.4
20260506153242 54 66 7.0 8.0 0.00 0.68 0.68 69 996.2
20260506152739 53 61 10.0 13.0 0.00 0.68 0.68 68 996.2
20260506152236 54 70 5.0 7.0 0.00 0.68 0.68 69 996.2
20260506151735 54 65 4.0 7.0 0.00 0.68 0.68 72 996.3
20260506151231 54 52 1.0 2.0 0.00 0.68 0.68 73 996.4
20260506150728 53 127 1.0 2.0 0.00 0.68 0.68 75 996.2
20260506150225 53 43 4.0 6.0 0.00 0.68 0.68 76 995.9